If you wish to contribute or participate in the discussions about articles you are invited to join SKYbrary as a registered user

 Actions

Mandalay International Airport

From SKYbrary Wiki

VYMD
Airport
ICAO: VYMD – IATA: MDL
Summary
Name Mandalay International Airport
Region Asia and Pacific
Territory Myanmar MM.gif
Location Tada-U, Mandalay Region
Serving Mandalay
Elevation 91.135 m
299 ft91.135 m
Coordinates 21° 56' 27.03" N, 96° 5' 23.54" E
Runways
Designator Length Width Surface ROPS
17/35 4268 m14,002.625 ft
61 m200.131 ft
CON yes/yes


METAR
Observation VYMD 251130Z 18007G15KT 6000 SCT020 FEW025CB 34/24 Q1000 NOSIG
Station MANDALAY
Date/Time 25 May 2019 11:30:00
Wind direction 180°
Wind speed 07 kts
Lowest cloud amount scattered clouds
Temperature 34°C
Dew point 24°C
Humidity 56%
QNH 1000 hPa
Weather condition n/a

Mandalay International Airport, located 35 km18.898 nm
35,000 m
114,829.396 ft
south of Mandalay in Tada-U, Myanmar.

Climatology

Tropical Savanna climate (Köppen climate classification Aw)

Maps

Terrain

Loading map...

Airport Layout

Loading map...


Accidents & Serious Incidents at or in vicinity of VYMD

None on SKYbrary